EW5738 Weather Reports


time (UTC)temp
C
wind
direction
speed
KPH
gust
KPH
rain 1hr
cm
rain 24hr
cm
rain mn
cm
humidity
%
barometer
mb
20260505111533 20 295 1.6 4.8 0.00 0.03 0.03 92 1018.5
20260505101549 20 269 0.0 3.2 0.00 0.03 0.03 89 1018.1
20260505100054 21 269 0.0 3.2 0.00 0.03 0.03 88 1017.9
20260505094532 21 178 0.0 1.6 0.00 0.03 0.03 88 1017.7
20260505093030 21 295 0.0 3.2 0.00 0.03 0.03 88 1018.0
20260505091529 21 331 1.6 3.2 0.00 0.03 0.03 87 1017.8
20260505090028 21 1 1.6 3.2 0.00 0.03 0.03 87 1017.8
20260505084528 21 335 1.6 4.8 0.00 0.03 0.03 87 1017.6
20260505083027 21 295 0.0 3.2 0.00 0.03 0.03 86 1017.1
20260505081526 22 295 1.6 4.8 0.00 0.03 0.03 84 1017.0
20260505080025 22 1 1.6 4.8 0.00 0.03 0.03 83 1016.7
20260505074525 22 347 1.6 4.8 0.00 0.03 0.03 83 1016.7
20260505073034 22 314 1.6 3.2 0.00 0.03 0.03 82 1016.7
20260505071523 22 1 1.6 4.8 0.00 0.03 0.03 81 1016.4
20260505070023 23 46 3.2 4.8 0.00 0.03 0.03 79 1016.3
20260505064522 23 1 0.0 4.8 0.00 0.03 0.03 78 1016.2
20260505063021 23 89 0.0 4.8 0.00 0.03 0.03 77 1016.2
20260505061525 23 306 1.6 6.4 0.00 0.03 0.03 76 1016.3
20260505060023 23 1 1.6 4.8 0.00 0.03 0.03 75 1016.1
20260505054519 24 89 0.0 6.4 0.00 0.03 0.03 75 1015.9
20260505053030 24 28 1.6 8.0 0.00 0.03 0.03 74 1015.7
20260505051534 25 349 1.6 8.0 0.00 0.03 0.03 72 1016.0
20260505041513 25 331 3.2 8.0 0.00 0.03 0.03 69 1015.6
20260505040012 25 46 1.6 8.0 0.00 0.03 0.03 71 1015.4
20260505034509 25 314 3.2 8.0 0.00 0.03 0.03 69 1015.6
20260505033009 25 112 1.6 6.4 0.00 0.03 0.03 69 1015.6
20260505031509 25 148 0.0 9.7 0.00 0.03 0.03 69 1015.5
20260505030006 26 8 1.6 6.4 0.00 0.03 0.03 69 1015.7
20260505024502 25 126 1.6 6.4 0.00 0.03 0.03 72 1015.9
20260505023105 25 162 3.2 9.7 0.00 0.03 0.03 72 1016.4
20260505021557 25 121 4.8 9.7 0.00 0.03 0.03 73 1016.6
20260505020057 24 170 1.6 8.0 0.00 0.03 0.03 76 1016.6
20260505014558 24 120 4.8 11.3 0.00 0.03 0.03 75 1017.0
20260505013056 24 120 3.2 11.3 0.00 0.03 0.03 77 1017.1
20260505011554 23 39 1.6 9.7 0.00 0.03 0.03 76 1017.4
20260505010109 24 196 4.8 11.3 0.00 0.03 0.03 77 1017.8
20260505004548 23 135 4.8 8.0 0.00 0.03 0.03 80 1018.0
20260505003047 23 185 6.4 11.3 0.00 0.03 0.03 80 1018.1
20260505001542 23 178 1.6 12.9 0.00 0.03 0.03 79 1018.3
20260505000044 23 128 4.8 14.5 0.00 0.03 0.03 83 1018.4
20260504234533 22 336 3.2 6.4 0.00 0.03 0.03 85 1018.4
20260504233031 22 135 3.2 11.3 0.00 0.03 0.03 87 1018.6
20260504231526 21 111 6.4 11.3 0.00 0.03 0.03 93 1018.7
20260504230036 20 186 4.8 11.3 0.00 0.03 0.03 96 1018.7
20260504224522 19 152 4.8 12.9 0.00 0.03 0.03 96 1018.7
20260504223016 19 152 3.2 6.4 0.00 0.03 0.03 96 1018.7
20260504221534 18 46 0.0 4.8 0.03 0.03 0.03 96 1018.7
20260504220012 18 89 0.0 3.2 0.03 0.03 0.03 96 1018.6
20260504214511 18 187 1.6 4.8 0.03 0.05 0.03 96 1018.6
20260504213009 17 135 0.0 3.2 0.03 0.05 0.03 96 1018.5
20260504211508 17 135 1.6 4.8 0.00 0.05 0.00 96 1018.4
20260504210006 17 135 0.0 3.2 0.00 0.05 0.00 95 1018.3
20260504204502 17 145 1.6 4.8 0.00 0.05 0.00 95 1018.0
20260504203001 17 178 0.0 4.8 0.00 0.05 0.00 95 1017.9
20260504201559 17 295 1.6 4.8 0.00 0.05 0.00 95 1018.0
20260504194600 17 276 3.2 4.8 0.00 0.05 0.00 95 1017.5
20260504193102 17 173 1.6 4.8 0.00 0.05 0.00 95 1017.4
20260504191601 17 310 1.6 4.8 0.00 0.05 0.00 95 1017.2
20260504190054 17 178 0.0 3.2 0.00 0.05 0.00 95 1017.2
20260504184553 17 306 1.6 4.8 0.00 0.05 0.00 95 1017.1
20260504183051 18 308 0.0 4.8 0.00 0.05 0.00 95 1017.1
20260504181551 18 223 3.2 6.4 0.00 0.05 0.00 95 1017.1
20260504180050 18 46 0.0 6.4 0.00 0.05 0.00 95 1016.8
20260504174547 18 269 1.6 4.8 0.00 0.05 0.00 95 1016.8
20260504173046 18 269 3.2 4.8 0.00 0.05 0.00 95 1016.9
20260504171544 18 283 3.2 8.0 0.00 0.05 0.00 95 1017.0